Погода в Большом Куганаке

Россия / Республика Башкортостан     53°48′27″N   56°06′03″E
темп.,
°C
ветер,
м/с
пор.,
м/с
влажн.,
%
обл.,
%
осадки,
мм/ч
давл.,
гПа
погр.,
м
22 апреля, чт
чт2223:00+8ююв51147100 0.0 1030349
02:00+7ююв51347100 0.0 1031362
05:00+6ююв61368100 0.0 1032727
08:00+6ю71263100 0.0 1032980
11:00+8ю71158100 0.0 1032787
14:00+8ю71062100 0.0 10321063
17:00+7ю71160100 0.0 1032985
20:00+5ю61173100 0.4 1032990
23 апреля, пт
пт2323:00+3ю51296100 3.1 1032702
02:00+4ююв41097100 2.8 1031736
05:00+4ююв3998100 4.4 1030871
08:00+6юв128889 0.3 1030168
11:00+10ююв4762100 0.3 1029972
14:00+14ю5745100 0.0 10271448
17:00+15ю6749100 0.0 10261589
20:00+10ю71167100 0.0 1026511
24 апреля, сб
сб2423:00+8ююв5884100 0.3 10261165
02:00+7юв3889100 1.7 1024747
05:00+7св4889100 3.6 1020267
08:00+9юв61071100 0.2 1019960
11:00+9в61169100 0.6 10171251
14:00+7ююв51188100 1.1 10151078
17:00+7юв61185100 2.4 1014785
20:00+7юв61187100 0.5 1014670
25 апреля, вс
вс2523:00+7ю41089100 1.2 1013685
02:00+6юз269297 0.1 1014247
05:00+6ю479595 0.3 1014293
08:00+6ю499199 0.0 1014362
11:00+9ю81484100 0.3 1013793
14:00+12зюз812495 2.2 10132128
17:00+12зюз710491 2.2 10162051
20:00+9зюз356794 0.1 101792
26 апреля, пн
пн2623:00+7ююз278771 0.7 1018370
02:00+5ююз2292100 0.0 101838
05:00+4ю2292100 0.0 101830
08:00+6ю3784100 0.0 1019238
11:00+10ююз4659100 0.0 1018839
14:00+10ю5558100 0.1 10171288
17:00+8ю2378100 0.8 1016397
20:00+6юв3491100 1.5 1015290